User: anonymous   Login
Location: Krakow
(50.0212°N, 19.9423°E)
Time: 23:23:39
(UTC+01:00)
Language:

ISS - Orbit

View from above orbital plane
View from above orbital plane
View from above satellite
View from above satellite

Ground track
Ground track

The orbit data is extracted from the following two-line orbital elements,

1 25544U 98067A   24052.67648913  .00017068  00000-0  30413-3 0  9993
2 25544  51.6402 172.7557 0001934 300.8027 194.5664 15.50210645440485
Epoch (UTC): 21 February 2024 16:14:08
Eccentricity: 0.0001934
inclination: 51.6402°
perigee height: 415 km
apogee height: 417 km
right ascension of ascending node: 172.7557°
argument of perigee: 300.8027°
revolutions per day: 15.50210645
mean anomaly at epoch: 194.5664°
orbit number at epoch: 44048

The dashed part of the orbit path shows where the satellite is in the earth's shadow,  

DLR